TimePST,TemperatureF,Dew PointF,Humidity,Sea Level PressureIn,VisibilityMPH,Wind Direction,Wind SpeedMPH,Gust SpeedMPH,PrecipitationIn,Events,Conditions,WindDirDegrees,DateUTC
12:15 AM,26.6,24.8,93,30.25,9.0,Calm,Calm,-,N/A,,Clear,0,2012-11-11 08:15:00
12:35 AM,26.6,24.8,93,30.25,10.0,Calm,Calm,-,N/A,,Clear,0,2012-11-11 08:35:00
12:55 AM,28.4,24.8,86,30.25,10.0,Calm,Calm,-,N/A,,Clear,0,2012-11-11 08:55:00
1:15 AM,26.6,24.8,93,30.26,10.0,Calm,Calm,-,N/A,,Clear,0,2012-11-11 09:15:00
1:35 AM,26.6,24.8,93,30.26,10.0,Calm,Calm,-,N/A,,Clear,0,2012-11-11 09:35:00
1:55 AM,26.6,23.0,86,30.27,10.0,Calm,Calm,-,N/A,,Clear,0,2012-11-11 09:55:00
2:15 AM,26.6,24.8,93,30.26,10.0,Calm,Calm,-,N/A,,Clear,0,2012-11-11 10:15:00
2:35 AM,26.6,24.8,93,30.26,10.0,Calm,Calm,-,N/A,,Clear,0,2012-11-11 10:35:00
2:55 AM,28.4,24.8,86,30.26,10.0,Calm,Calm,-,N/A,,Clear,0,2012-11-11 10:55:00
3:35 AM,28.4,24.8,86,30.25,10.0,Calm,Calm,-,N/A,,Clear,0,2012-11-11 11:35:00
3:55 AM,28.4,24.8,86,30.25,10.0,Calm,Calm,-,N/A,,Clear,0,2012-11-11 11:55:00
4:15 AM,28.4,24.8,86,30.25,10.0,Calm,Calm,-,N/A,,Clear,0,2012-11-11 12:15:00
4:35 AM,28.4,24.8,86,30.24,10.0,Calm,Calm,-,N/A,,Clear,0,2012-11-11 12:35:00
4:55 AM,28.4,24.8,86,30.24,10.0,Calm,Calm,-,N/A,,Clear,0,2012-11-11 12:55:00
5:35 AM,28.4,26.6,93,30.24,10.0,ENE,3.5,-,N/A,,Mostly Cloudy,70,2012-11-11 13:35:00
5:55 AM,28.4,24.8,86,30.24,10.0,Calm,Calm,-,N/A,,Mostly Cloudy,0,2012-11-11 13:55:00
6:15 AM,30.2,26.6,86,30.24,10.0,North,4.6,-,N/A,,Mostly Cloudy,10,2012-11-11 14:15:00
6:35 AM,30.2,26.6,86,30.24,10.0,Calm,Calm,-,N/A,,Mostly Cloudy,0,2012-11-11 14:35:00
7:15 AM,30.2,28.4,93,30.24,9.0,Calm,Calm,-,N/A,,Overcast,0,2012-11-11 15:15:00
7:35 AM,30.2,26.6,86,30.24,10.0,Calm,Calm,-,N/A,,Overcast,0,2012-11-11 15:35:00
7:55 AM,30.2,26.6,86,30.25,10.0,Calm,Calm,-,N/A,,Overcast,0,2012-11-11 15:55:00
8:15 AM,30.2,28.4,93,30.25,10.0,Calm,Calm,-,N/A,,Overcast,0,2012-11-11 16:15:00
8:35 AM,32.0,28.4,87,30.24,10.0,Calm,Calm,-,N/A,,Overcast,0,2012-11-11 16:35:00
8:55 AM,33.8,28.4,81,30.24,10.0,Calm,Calm,-,N/A,,Overcast,0,2012-11-11 16:55:00
9:15 AM,33.8,28.4,81,30.24,10.0,Calm,Calm,-,N/A,,Overcast,0,2012-11-11 17:15:00
9:35 AM,33.8,30.2,87,30.24,10.0,Calm,Calm,-,N/A,,Overcast,0,2012-11-11 17:35:00
9:55 AM,35.6,30.2,81,30.25,10.0,Calm,Calm,-,N/A,,Overcast,0,2012-11-11 17:55:00
10:15 AM,35.6,30.2,81,30.25,10.0,Calm,Calm,-,N/A,,Overcast,0,2012-11-11 18:15:00
10:35 AM,37.4,30.2,75,30.25,10.0,Calm,Calm,-,N/A,,Overcast,0,2012-11-11 18:35:00
10:55 AM,37.4,32.0,81,30.25,10.0,Calm,Calm,-,N/A,,Overcast,0,2012-11-11 18:55:00
11:15 AM,37.4,32.0,81,30.24,10.0,Calm,Calm,-,N/A,,Overcast,0,2012-11-11 19:15:00
11:35 AM,39.2,33.8,81,30.24,10.0,NNE,4.6,-,N/A,,Overcast,30,2012-11-11 19:35:00
11:55 AM,39.2,35.6,87,30.23,10.0,Calm,Calm,-,N/A,,Overcast,0,2012-11-11 19:55:00
12:15 PM,42.8,37.4,81,30.23,10.0,East,3.5,-,N/A,,Overcast,80,2012-11-11 20:15:00
12:35 PM,41.0,37.4,87,30.23,10.0,ENE,3.5,-,N/A,,Overcast,70,2012-11-11 20:35:00
12:55 PM,41.0,35.6,81,30.22,10.0,East,3.5,-,N/A,,Overcast,90,2012-11-11 20:55:00
1:15 PM,41.0,37.4,87,30.21,10.0,NE,4.6,-,N/A,,Overcast,50,2012-11-11 21:15:00
1:35 PM,42.8,37.4,81,30.20,10.0,East,8.1,-,N/A,,Overcast,90,2012-11-11 21:35:00
1:55 PM,44.6,37.4,76,30.19,10.0,East,5.8,-,N/A,,Overcast,90,2012-11-11 21:55:00
2:15 PM,42.8,39.2,87,30.18,10.0,East,6.9,-,N/A,,Overcast,90,2012-11-11 22:15:00
2:35 PM,44.6,37.4,76,30.18,10.0,East,6.9,-,N/A,,Overcast,90,2012-11-11 22:35:00
2:55 PM,42.8,37.4,81,30.18,10.0,Calm,Calm,-,N/A,,Overcast,0,2012-11-11 22:55:00
3:15 PM,41.0,37.4,87,30.18,10.0,Calm,Calm,-,N/A,,Overcast,0,2012-11-11 23:15:00
3:35 PM,44.6,37.4,76,30.17,10.0,East,3.5,-,N/A,,Overcast,100,2012-11-11 23:35:00
3:55 PM,44.6,37.4,76,30.17,10.0,ESE,9.2,-,N/A,,Overcast,110,2012-11-11 23:55:00
4:15 PM,44.6,37.4,76,30.16,10.0,ESE,8.1,-,N/A,,Overcast,110,2012-11-12 00:15:00
4:35 PM,44.6,39.2,81,30.16,10.0,East,10.4,-,N/A,,Overcast,100,2012-11-12 00:35:00
4:55 PM,42.8,39.2,87,30.16,10.0,Calm,Calm,-,N/A,,Overcast,0,2012-11-12 00:55:00
5:15 PM,44.6,39.2,81,30.15,10.0,ESE,9.2,-,0.01,,Overcast,110,2012-11-12 01:15:00
5:35 PM,44.6,39.2,81,30.15,10.0,ESE,10.4,-,0.01,,Overcast,120,2012-11-12 01:35:00
5:55 PM,44.6,39.2,81,30.14,10.0,ESE,10.4,16.1,0.02,,Overcast,110,2012-11-12 01:55:00
6:15 PM,44.6,39.2,81,30.13,10.0,East,11.5,-,0.02,,Overcast,100,2012-11-12 02:15:00
6:35 PM,44.6,39.2,81,30.12,10.0,East,10.4,-,0.02,,Overcast,90,2012-11-12 02:35:00
6:55 PM,42.8,39.2,87,30.11,8.0,East,6.9,-,0.02,,Overcast,80,2012-11-12 02:55:00
7:15 PM,42.8,39.2,87,30.10,9.0,Calm,Calm,-,0.01,,Overcast,0,2012-11-12 03:15:00
7:35 PM,41.0,37.4,87,30.10,10.0,North,6.9,-,0.01,,Overcast,350,2012-11-12 03:35:00
7:55 PM,41.0,37.4,87,30.10,10.0,Calm,Calm,-,0.02,,Overcast,0,2012-11-12 03:55:00
8:15 PM,41.0,37.4,87,30.11,9.0,Calm,Calm,-,N/A,,Overcast,0,2012-11-12 04:15:00
8:35 PM,42.8,39.2,87,30.11,10.0,South,3.5,-,N/A,,Overcast,180,2012-11-12 04:35:00
8:55 PM,42.8,39.2,87,30.12,10.0,Calm,Calm,-,N/A,,Overcast,0,2012-11-12 04:55:00
9:15 PM,42.8,39.2,87,30.12,10.0,Calm,Calm,-,N/A,,Overcast,0,2012-11-12 05:15:00
9:35 PM,41.0,37.4,87,30.12,10.0,Calm,Calm,-,N/A,,Overcast,0,2012-11-12 05:35:00
9:55 PM,41.0,39.2,93,30.11,8.0,Calm,Calm,-,N/A,,Overcast,0,2012-11-12 05:55:00
10:15 PM,42.8,39.2,87,30.11,9.0,Calm,Calm,-,N/A,,Overcast,0,2012-11-12 06:15:00
10:35 PM,42.8,41.0,93,30.11,10.0,Calm,Calm,-,N/A,,Overcast,0,2012-11-12 06:35:00
10:55 PM,42.8,41.0,93,30.11,10.0,Calm,Calm,-,N/A,,Overcast,0,2012-11-12 06:55:00
11:15 PM,42.8,39.2,87,30.10,10.0,South,5.8,-,N/A,,Overcast,170,2012-11-12 07:15:00
11:35 PM,42.8,39.2,87,30.10,10.0,South,5.8,-,N/A,,Overcast,190,2012-11-12 07:35:00
11:55 PM,42.8,41.0,93,30.10,10.0,South,6.9,-,0.01,,Overcast,180,2012-11-12 07:55:00